sat.trackr.live / text

‹ back to catalog

STARLINK-33721

NORAD 63480 · 2025-070W

PAYLOAD ACTIVE UNKNOWN

§ Identity

Operator
Country
US
Launch date
2025-04-06
Launch site
AFETR
Launch vehicle
Mass (kg)
RCS (m²)

Purposes: comms

External: N2YO · Heavens-Above · Gunter

§ Orbital elements

Epoch: 2026-05-25T03:49:21.662400Z

Period
94.27 min
Inclination
43.0010°
Eccentricity
0.0001196
Mean motion
15.27592078 rev/d
Perigee alt
482.2 km
Apogee alt
483.8 km
Semi-major
6,861.1 km
B*
5.3113e-4
RAAN
184.2727°
Arg perigee
285.8013°
Mean anomaly
74.2707°
Rev number
6,471

§ Raw data

STARLINK-337211 63480U 25070W   26145.15927850  .00014387  00000+0  53113-3 0  99982 63480  43.0010 184.2727 0001196 285.8013  74.2707 15.27592078 64717

JSON: /api/v1/satellites/63480 · /tle

For live sub-satellite position, see the globe view (requires WebGL).

§ Visibility from observer

Set your observer location to see the next 7 days of passes ≥ 10°. The values pass through the URL so the page stays shareable.

No JS? Fill the form by hand. The geolocation button needs JavaScript.